Location: Chagrin Falls Park
(41.4139°N, 81.3865°W)
Time: 00:04:39
(UTC+00:00)

STARLINK-2732 - Pass Details

Date: 31 July 2021
Orbit: 546 x 548 km, 53.1° (Epoch: 20 September)

Event Time Altitude Azimuth Distance (km) Brightness Sun altitude
Rises 02:12:14 0° 304° (WNW) 2,721 9.0 -14.6°
Reaches altitude 10° 02:14:31 10° 298° (WNW) 1,824 7.6 -14.9°
Maximum altitude 02:18:30 48° 225° (SW) 722 4.2 -15.4°
Enters shadow 02:20:29 26° 164° (SSE) 1,103 4.7 -15.7°
